Weather Roundup
Issued by NWS

Home | Current Version | Previous Version | Text Only | Print | Product List | Glossary On
Versions: 1 2 3 4 5 6 7 8 9 10 11 12 13 14 15 16 17 18 19 20 21 22 23 24 25 26 27 28 29 30 31 32 33 34 35 36 37 38 39 40 41 42 43 44 45 46 47 48 49 50
000
NZUS93 KARX 182159
HRRWXR

CURRENT HOURLY OBSERVATIONS ACROSS
MUCH OF THE UPPER MISSISSIPPI VALLEY
NATIONAL WEATHER SERVICE LA CROSSE WI
500 PM CDT FRI AUG 18 2017


...SOUTHEAST MINNESOTA...


CITY           SKY/WX    TMP DP  RH WIND       PRES   REMARKS
ROCHESTER      MOSUNNY   68  61  78 SW6       29.92F
ROCHESTER/MAYO MOCLDY    69  60  73 SW5       29.92S
WINONA         CLOUDY    70  63  78 W6        29.90S
AUSTIN         SUNNY     70  57  64 CALM      29.92F
ALBERT LEA     SUNNY     73  61  64 CALM      29.92F
DODGE CENTER   SUNNY     70  59  68 SW5       29.92S
PRESTON        CLOUDY    70  57  63 SW3       29.92F
OWATONNA       SUNNY     72  61  68 CALM      29.90F
FARIBAULT      SUNNY     73  61  64 S3        29.90F
$$

...ELSEWHERE IN MINNESOTA...


CITY           SKY/WX    TMP DP  RH WIND       PRES   REMARKS
MINNEAPOLIS    PTSUNNY   73  61  65 SW8       29.88F
INTNL FALLS    PTSUNNY   74  58  57 W6        29.79S
DULUTH         PTSUNNY   70  60  70 W7        29.85S
RED WING       CLOUDY    72  61  68 W5        29.88F
REDWOOD FALLS  SUNNY     74  61  63 SE12      29.86F
MANKATO        MOSUNNY   72  61  68 S6        29.90F
WORTHINGTON    MOSUNNY   77  62  59 S8        29.90F
FAIRMONT       SUNNY     75  60  59 CALM      29.91F
$$

...SOUTHWEST WISCONSIN...


CITY           SKY/WX    TMP DP  RH WIND       PRES   REMARKS
LA CROSSE      CLOUDY    72  63  73 NW8       29.89S
PRAIRIE DU CHI CLOUDY    72  58  62 W7        29.90S
BOSCOBEL       CLOUDY    73  61  65 W5        29.90S
LONE ROCK      NOT AVBL
PLATTEVILLE    CLOUDY    75  64  67 NW12      29.90S
FORT MC COY    CLOUDY    69  62  79 W8        29.90S
MAUSTON-NEW LI CLOUDY    71  62  74 W8        29.87S
VIROQUA        CLOUDY    67  63  86 W6        29.92S
WIS DELLS      CLOUDY    73  55  53 NW8       29.88S
$$

...ELSEWHERE IN WISCONSIN...


CITY           SKY/WX    TMP DP  RH WIND       PRES   REMARKS
MILWAUKEE      PTSUNNY   79  60  52 W10       29.84R
MADISON        CLOUDY    73  59  61 W9        29.87R
GREEN BAY      PTSUNNY   71  63  75 W9        29.82R
EAU CLAIRE     MOSUNNY   69  63  81 W8        29.87S
BLACK RVR FLS  LGT RAIN  68  61  77 W5        29.88S
MEDFORD        CLOUDY    65  58  78 W8        29.87S
WAUSAU         MOSUNNY   67  58  72 NW15      29.84R
WIS RAPIDS     CLOUDY    70  60  70 NW12      29.87S
MARSHFIELD     CLOUDY    68  59  73 W9        29.86S
RICE LAKE      CLOUDY    68  62  81 W5        29.89S
$$

...NORTHEAST IOWA...


CITY           SKY/WX    TMP DP  RH WIND       PRES   REMARKS
WATERLOO       SUNNY     77  59  53 N6        29.89S
DUBUQUE        MOSUNNY   74  60  61 N10       29.90S
DECORAH        CLOUDY    68  61  77 VRB5      29.92S
MASON CITY     SUNNY     72  61  68 NE9       29.93S
CHARLES CITY   SUNNY     72  61  68 N8        29.93S
OELWEIN        CLOUDY    73  63  68 N8        29.92S
$$

...ELSEWHERE IN IOWA...


CITY           SKY/WX    TMP DP  RH WIND       PRES   REMARKS
DES MOINES     MOSUNNY   89  61  38 NW8       29.86S
IOWA CITY      MOSUNNY   83  65  54 W6        29.89S
FORT DODGE     SUNNY     79  63  57 NW3       29.91S
MARSHALLTOWN   SUNNY     79  64  60 NE5       29.89S
CEDAR RAPIDS   SUNNY     80  61  52 NW6       29.88F
$$

...NORTHERN ILLINOIS...


CITY           SKY/WX    TMP DP  RH WIND       PRES   REMARKS
CHICAGO-OHARE  MOSUNNY   82  57  42 W14G21    29.84S
CHICAGO-MIDWAY MOSUNNY   83  59  44 W14       29.84S
MOLINE         PTSUNNY   83  64  52 W8        29.87S
ROCKFORD       PTSUNNY   78  60  53 W13       29.87F
PEORIA         CLOUDY    82  65  56 W7        29.88S
$$

NOTE: "FAIR" INDICATES FEW OR NO CLOUDS BELOW 12,000 FEET WITH NO
SIGNIFICANT WEATHER AND/OR OBSTRUCTIONS TO VISIBILITY. WIND
SPEEDS ARE IN MILES-PER-HOUR.




USA.gov is the U.S. government's official web portal to all federal, state and local government web resources and services.